This is the latest recevied weather packets stored in our database for station/object IU1OLT-5. If no packets are shown the sender has not sent any weather packets the latest 10 day(s).
| Time | Temp. | Humidity | Pressure | Rain* | Wind** | Luminosity | Snow |
|---|---|---|---|---|---|---|---|
| 1777845424 | 12.22° C | 73% | 1019.2 hPa | 0 mm | - | 0 W/m² | - |
| 1777844524 | 12.22° C | 74% | 1019.3 hPa | 0 mm | - | 0 W/m² | - |
| 1777843624 | 13.33° C | 70% | 1019.3 hPa | 0 mm | - | 0 W/m² | - |
| 1777842724 | 13.33° C | 70% | 1019.1 hPa | 0 mm | - | 0 W/m² | - |
| 1777841824 | 13.33° C | 72% | 1019 hPa | 0 mm | - | 0 W/m² | - |
| 1777840924 | 13.33° C | 73% | 1019.2 hPa | 0 mm | - | 0 W/m² | - |
| 1777840024 | 13.33° C | 72% | 1019.4 hPa | 0 mm | - | 0 W/m² | - |
| 1777839123 | 13.89° C | 71% | 1019 hPa | 0 mm | - | 0 W/m² | - |
| 1777838223 | 13.89° C | 71% | 1018.8 hPa | 0 mm | - | 0 W/m² | - |
| 1777837323 | 14.44° C | 73% | 1018.9 hPa | 0 mm | - | 0 W/m² | - |
| 1777836423 | 14.44° C | 74% | 1018.9 hPa | 0 mm | - | 0 W/m² | - |
| 1777835523 | 15° C | 73% | 1018.6 hPa | 0 mm | - | 0 W/m² | - |
| 1777834623 | 15° C | 72% | 1018.4 hPa | 0 mm | - | 0 W/m² | - |
| 1777833723 | 14.44° C | 73% | 1018.3 hPa | 0 mm | - | 0 W/m² | - |
| 1777832822 | 15° C | 72% | 1018.5 hPa | 0 mm | - | 1 W/m² | - |
| 1777831922 | 15° C | 70% | 1018.4 hPa | 0 mm | - | 6 W/m² | - |
| 1777831022 | 15.56° C | 70% | 1018.2 hPa | 0 mm | - | 16 W/m² | - |
| 1777830121 | 15.56° C | 70% | 1018.4 hPa | 0 mm | - | 28 W/m² | - |
| 1777829221 | 15.56° C | 72% | 1018.7 hPa | 0 mm | - | 41 W/m² | - |
| 1777828320 | 15.56° C | 69% | 1018.7 hPa | 0 mm | - | 58 W/m² | - |
| 1777827420 | 16.11° C | 67% | 1018.6 hPa | 0 mm | - | 75 W/m² | - |
| 1777826520 | 16.11° C | 62% | 1018.5 hPa | 0 mm | - | 94 W/m² | - |
| 1777825619 | 16.67° C | 61% | 1018.4 hPa | 0 mm | - | 115 W/m² | - |
| 1777824719 | 16.67° C | 54% | 1018.6 hPa | 0 mm | - | 120 W/m² | - |
| 1777823819 | 17.22° C | 57% | 1018.5 hPa | 0 mm | - | 157 W/m² | - |
* Rain latest hour (hover to see other rain measurements)
** Current wind speed in m/s (hover to see current wind gust speed)